Simultaneous Nadir Overpasses (SNOs) Predictions

Prediction of SNOs between GOES-16 and METOP-C Satellite Orbit:

Table of predicted SNOs for the next 14.0 days since TLE Epoch: 10/8/2022
Index Date Time (GOES-16) GOES-16 Lat,Lon METOP-C Lat,Lon Distance(km) Time Diff (sec)
1 10/09/2022 02:49:36 0.08, -75.19 -0.90, -79.43 483.86 80
2 10/10/2022 02:28:59 0.07, -75.19 0.26, -74.45 85.84 80
3 10/11/2022 14:45:11 -0.08, -75.22 0.74, -79.01 430.68 80
4 10/12/2022 14:27:12 -0.07, -75.23 -0.36, -74.01 139.34 80
5 10/14/2022 02:46:15 0.07, -75.23 -0.70, -78.61 384.94 80
6 10/15/2022 02:22:56 0.07, -75.24 0.42, -73.61 185.30 80
7 10/16/2022 14:41:49 -0.06, -75.28 0.59, -78.17 330.46 80
8 10/17/2022 14:23:50 -0.06, -75.29 -0.52, -73.18 240.12 80
9 10/19/2022 02:42:52 0.06, -75.30 -0.51, -77.78 282.97 80
10 10/20/2022 02:19:34 0.05, -75.32 0.61, -72.79 287.98 80
11 10/21/2022 14:38:26 -0.05, -75.36 0.41, -77.35 226.69 80
